Weather Roundup
Issued by NWS

Home | Current Version | Previous Version | Graphics & Text | Print | Product List | Glossary Off
Versions: 1 2 3 4 5 6 7 8 9 10 11 12 13 14 15 16 17 18 19 20 21 22 23 24 25 26 27 28 29 30 31 32 33 34 35 36 37 38 39 40 41 42 43 44 45 46 47 48 49 50

621
NZUS93 KARX 241410
HRRWXR

CURRENT HOURLY OBSERVATIONS ACROSS
MUCH OF THE UPPER MISSISSIPPI VALLEY
NATIONAL WEATHER SERVICE LA CROSSE WI
900 AM CDT SUN JUL 24 2016


...SOUTHEAST MINNESOTA...


CITY           SKY/WX    TMP DP  RH WIND       PRES   REMARKS
ROCHESTER      MOSUNNY   79  72  79 NW9       29.86R
ROCHESTER/MAYO FAIR      77  74  90 W16       29.85R
WINONA         CLOUDY    79  73  83 NW5       29.80S
AUSTIN         SUNNY     79  70  73 NW14      29.87R
ALBERT LEA     SUNNY     77  70  78 N12       29.89R
DODGE CENTER   SUNNY     79  72  78 NW10G17   29.87R
PRESTON        PTSUNNY   78  73  86 NW12      29.85S
OWATONNA       SUNNY     77  70  78 NW10      29.88R
FARIBAULT      SUNNY     77  70  78 NW7       29.87S
$$

...ELSEWHERE IN MINNESOTA...


CITY           SKY/WX    TMP DP  RH WIND       PRES   REMARKS
MINNEAPOLIS    MOSUNNY   78  69  73 W10       29.84R
INTNL FALLS    CLOUDY    66  60  81 W12G20    29.75R
DULUTH         PTSUNNY   72  66  81 NW12      29.78R
RED WING       PTSUNNY   81  72  74 NW10      29.82R
REDWOOD FALLS  MOSUNNY   72  61  68 NW10      29.91S
MANKATO        SUNNY     73  64  73 NW12      29.89S
WORTHINGTON    SUNNY     74  64  71 MISG      29.98R
FAIRMONT       SUNNY     75  46  35 NW10      29.91R
$$

...SOUTHWEST WISCONSIN...


CITY           SKY/WX    TMP DP  RH WIND       PRES   REMARKS
LA CROSSE      CLOUDY    80  75  84 SW7       29.79R
PRAIRIE DU CHI SUNNY     83  76  78 SW8       29.80F HX  91
BOSCOBEL       SUNNY     85  78  80 SW7       29.81S HX  96
LONE ROCK      MOSUNNY   82  77  84 SW5       29.82S HX  90
PLATTEVILLE    CLOUDY    81  80  94 SW12      29.85S HX  91
FORT MC COY    CLOUDY    78  75  91 W6        29.81R
CAMP DOUGLAS   CLOUDY    79  77  94 SW6       29.79S
MAUSTON-NEW LI PTSUNNY   80  77  89 SW9       29.79S
VIROQUA        CLOUDY    78  77  97 W6        29.83S
WIS DELLS      CLOUDY    79  75  86 SW9       29.82S
$$

...ELSEWHERE IN WISCONSIN...


CITY           SKY/WX    TMP DP  RH WIND       PRES   REMARKS
MILWAUKEE      CLOUDY    72  69  90 SE8       29.87F
MADISON        CLOUDY    79  74  84 S9        29.83S
GREEN BAY      CLOUDY    73  73 100 S6        29.80F
EAU CLAIRE     CLOUDY    73  72  96 W6        29.80R
BLACK RVR FLS  CLOUDY    76  76 100 CALM      29.79S
MEDFORD        FOG       71  71 100 S5        29.81R VSB 1
WAUSAU         FOG       72  71  97 S5        29.79F VSB 3/4
WIS RAPIDS     CLOUDY    76  73  91 S5        29.81S FOG
MARSHFIELD     FOG       74  71  91 S5        29.80F VSB 1/4
RICE LAKE      CLOUDY    71  67  88 CALM      29.83S
$$

...NORTHEAST IOWA...


CITY           SKY/WX    TMP DP  RH WIND       PRES   REMARKS
WATERLOO       CLOUDY    81  75  82 NW8       29.84R
DUBUQUE        SUNNY     82  77  84 SW9       29.85S HX  90
DECORAH        CLOUDY    77  77 100 VRB6      29.83R
MASON CITY     SUNNY     78  72  81 NW16      29.90R
CHARLES CITY   CLOUDY    79  79 100 NW7       29.86R
OELWEIN        PTSUNNY   81  77  89 W9G15     29.85R
$$

...ELSEWHERE IN IOWA...


CITY           SKY/WX    TMP DP  RH WIND       PRES   REMARKS
DES MOINES     CLOUDY    83  75  77 NW9       29.87R HX  90
IOWA CITY      CLOUDY    85  78  80 SW8       29.86R HX  96
FORT DODGE     SUNNY     77  72  83 N7        29.92R
MARSHALLTOWN   CLOUDY    81  77  88 W9        29.86R
CEDAR RAPIDS   SUNNY     83  79  88 SW9       29.84S HX  94
$$

...NORTHERN ILLINOIS...


CITY           SKY/WX    TMP DP  RH WIND       PRES   REMARKS
CHICAGO-OHARE  CLOUDY    78  73  84 S12       29.91F
CHICAGO-MIDWAY CLOUDY    79  71  76 S13G22    29.92F
MOLINE         SUNNY     86  77  74 S8        29.85S HX  97
ROCKFORD       MOSUNNY   82  76  81 MISG      29.88F HX  90
PEORIA         MOSUNNY   82  78  88 S10       29.92S HX  91
$$

NOTE: "FAIR" INDICATES FEW OR NO CLOUDS BELOW 12,000 FEET WITH NO
SIGNIFICANT WEATHER AND/OR OBSTRUCTIONS TO VISIBILITY. WIND
SPEEDS ARE IN MILES-PER-HOUR.




USA.gov is the U.S. government's official web portal to all federal, state and local government web resources and services.